Temp
27 26 26 26 26 27 27 27 26 26 26 25 24 23 22 22 21 22 22 22 22 22 22 22 22 22 21 21 20 20 20 21 21 20 20 20 20 21 21 21 21 20 20 20 20 20 20 19 18 18 18 18 18 18 17 17 17 17 17 17 17 17 17 17 17 17 17 18 18 17 17 17 17 17 16 16 16 16 15 15 15 15 15 15 15 15
27 26 26 28 27 27 27 26 26 26 26 25 24 23 22 22 22 22 22 22 22 22 21 22 22 22 22 21 21 21 20 21 21 21 20 20 20 21 21 21 21 20 20 20 20 20 20 19 19 19 19 18 18 18 17 17 17 17 17 17 17 17 17 17 17 17 17 17 17 17 17 17 17 16 16 16 16 16 15 15 15 15 15 15 15 15
26 26 28 28 27 27 27 26 26 26 26 25 25 23 22 22 22 21 22 22 22 22 21 21 22 22 22 22 21 21 21 21 21 21 21 21 20 20 20 20 20 20 20 20 20 20 20 20 19 19 19 18 18 18 17 17 17 17 17 17 17 17 17 17 17 17 17 17 16 16 17 17 17 16 16 16 16 16 16 15 15 15 15 16 16 16
25 27 28 28 27 27 26 26 26 26 26 26 25 23 22 22 22 21 21 22 22 22 22 22 22 22 22 22 21 21 22 22 21 21 21 21 21 21 21 21 20 20 20 20 20 20 20 20 19 19 19 18 18 18 18 17 17 17 17 17 17 17 17 17 17 17 16 16 16 16 16 16 16 16 16 16 16 16 16 15 15 15 15 16 16 16
26 27 28 27 27 27 26 26 26 26 25 25 25 24 23 23 22 22 22 22 22 22 23 22 22 22 22 22 21 22 22 22 21 21 21 21 21 21 21 21 21 21 20 20 20 20 20 20 19 19 19 18 18 18 18 18 18 17 17 17 17 17 17 17 16 16 16 16 16 16 16 16 16 16 16 16 16 16 16 16 16 15 15 16 16 16
28 27 27 27 27 27 26 26 27 26 24 24 25 25 24 24 23 23 23 22 22 21 23 23 21 21 22 23 23 22 22 22 22 22 22 22 22 22 21 21 21 21 21 20 20 20 20 20 19 19 19 19 19 18 18 18 18 18 17 17 17 17 17 16 16 16 16 17 16 17 17 17 17 16 16 16 16 16 16 16 16 15 15 16 16 16
27 26 26 27 26 26 26 26 27 27 25 23 24 25 25 24 23 23 23 22 21 21 23 23 21 21 22 23 24 23 22 22 22 22 22 22 22 22 22 22 21 21 21 21 21 21 20 20 19 19 19 19 19 18 18 18 18 18 17 17 17 17 17 17 16 16 16 17 17 17 17 17 17 16 16 16 16 16 16 16 16 16 16 16 16 16
27 26 26 26 26 26 26 26 27 27 25 23 24 25 25 25 23 23 23 23 22 22 22 23 22 21 21 23 25 24 23 23 23 23 23 23 23 23 23 22 22 22 22 21 21 21 21 20 19 19 19 19 18 18 18 18 18 18 17 17 17 17 17 17 16 16 17 17 17 17 17 17 17 16 16 16 16 16 16 16 16 16 16 16 16 16
28 27 26 27 26 26 26 26 27 27 25 24 25 25 25 25 24 24 24 23 23 22 21 22 23 21 21 23 25 25 23 23 23 23 23 23 23 23 23 23 23 22 22 22 21 21 21 20 20 19 19 19 18 18 18 18 18 18 18 17 17 17 17 17 17 17 17 17 17 17 17 17 17 16 16 16 16 16 16 16 16 16 16 16 16 16
27 27 27 27 27 26 26 26 27 26 25 24 25 25 25 25 25 24 24 23 22 21 20 21 22 21 21 22 24 23 23 24 24 24 24 24 24 24 23 23 23 23 23 22 22 22 21 20 20 19 20 19 18 18 18 18 18 18 18 17 17 17 17 17 17 17 17 16 17 17 17 17 17 17 17 17 17 16 16 17 16 16 16 16 16 15
27 26 27 27 27 27 26 26 26 26 26 25 25 25 24 25 25 24 24 23 21 21 21 21 22 21 21 22 23 24 24 25 26 26 25 25 25 24 24 24 24 23 23 23 23 22 21 20 20 20 20 19 18 18 18 18 18 18 18 17 18 18 17 17 17 17 17 17 17 17 17 17 17 17 17 17 17 17 17 17 17 16 16 16 16 15
27 26 26 26 26 26 26 25 25 26 25 25 26 25 23 23 23 22 22 22 21 21 21 22 22 22 20 22 25 26 26 27 27 26 26 25 25 25 24 24 24 24 24 23 23 23 21 20 20 20 20 19 19 18 18 18 18 18 18 18 18 18 17 17 17 17 17 17 17 17 17 17 17 17 18 18 18 18 18 17 17 17 16 16 16 15
27 26 26 25 26 27 26 25 24 25 25 26 26 24 22 21 21 21 21 21 21 21 22 22 22 21 21 24 26 27 27 27 27 27 27 26 26 25 25 25 25 24 24 24 23 23 22 21 20 20 19 19 19 19 18 18 18 18 18 18 18 18 18 17 17 17 17 17 17 17 17 17 17 17 17 18 18 18 17 17 17 17 16 16 16 15
24 25 26 25 25 27 27 25 23 23 25 25 24 23 21 21 21 21 21 21 21 21 22 22 22 21 22 25 27 28 27 27 27 27 27 27 27 26 25 25 25 24 24 24 23 23 22 21 21 20 20 20 19 19 19 19 18 18 18 18 18 18 18 17 17 17 17 17 17 17 17 17 17 17 17 17 18 17 17 17 17 16 16 16 16 15
22 22 25 26 25 26 27 27 26 26 26 25 26 25 22 21 21 21 21 21 21 21 21 22 21 21 21 23 27 27 27 27 27 27 27 27 27 26 26 25 25 25 24 24 24 23 23 22 21 20 20 20 20 19 19 19 19 19 19 18 18 18 18 18 17 17 17 17 17 17 17 17 17 17 17 17 17 17 17 17 16 16 16 16 15 14
22 22 26 26 26 27 27 27 28 27 25 25 27 25 22 23 23 21 21 21 21 21 21 21 22 24 24 25 27 27 26 27 26 26 26 26 26 26 26 26 25 25 25 24 24 23 23 22 21 21 20 20 20 19 19 19 19 19 19 19 18 18 18 18 18 18 17 17 17 17 17 17 17 17 17 17 17 17 16 16 16 16 15 15 14 13
22 22 26 26 25 27 27 27 28 26 24 25 25 23 24 26 25 22 20 21 21 20 21 21 22 24 25 26 27 27 26 27 26 26 26 26 26 25 25 25 25 25 25 24 24 24 23 22 21 21 21 20 20 20 20 19 19 19 19 19 19 19 18 18 18 18 18 18 17 17 17 17 17 17 17 17 17 17 16 16 16 15 15 14 13 12
24 23 26 27 26 26 27 27 27 27 26 25 23 24 26 26 25 23 21 21 21 20 21 21 21 22 22 23 26 27 26 27 27 26 26 26 25 25 25 25 25 25 25 24 24 24 24 23 22 22 21 21 20 20 20 20 20 19 19 19 19 19 19 18 18 18 18 18 18 17 17 17 17 17 17 17 17 16 16 16 15 15 14 13 12 12
26 23 24 27 26 26 27 26 25 26 27 26 25 27 26 23 22 22 21 21 21 21 21 21 21 22 22 23 25 26 26 27 27 26 26 26 25 25 25 25 25 25 25 24 24 24 24 23 22 22 22 21 21 20 21 20 20 20 19 19 20 19 19 19 18 18 18 18 18 18 18 17 17 17 17 17 16 16 16 16 15 14 13 13 12 12
28 23 22 26 27 26 26 26 24 24 26 27 27 27 26 24 23 22 22 22 21 21 21 21 21 22 23 25 26 27 27 27 26 26 26 26 25 25 25 25 25 25 24 24 24 24 24 23 23 22 22 22 21 21 21 21 20 20 20 19 19 19 19 19 18 18 18 18 18 18 18 18 17 17 17 17 16 16 16 16 15 14 13 12 12 11
28 24 22 25 27 25 25 26 26 26 26 25 25 24 25 24 24 23 23 22 22 21 21 21 21 21 25 28 28 27 27 27 27 27 26 27 26 25 25 25 25 25 24 24 24 24 24 24 23 23 22 22 22 22 21 21 20 20 20 20 19 19 19 19 18 18 18 18 18 18 18 18 17 17 17 17 16 16 16 15 14 13 12 12 11 11
27 26 23 23 24 23 25 28 28 27 28 27 26 25 25 25 23 22 22 22 22 22 21 21 20 22 26 28 27 27 27 27 28 27 27 27 26 26 25 25 25 25 24 24 24 24 24 24 23 23 22 22 23 22 22 21 21 21 20 20 20 19 19 19 19 19 19 18 18 18 18 18 17 17 17 16 16 15 14 14 13 12 12 11 11 10
26 27 24 22 24 26 27 28 26 26 28 28 27 27 27 26 23 21 21 21 22 22 22 22 21 22 26 27 27 27 27 27 27 27 26 27 26 26 25 25 24 24 24 24 24 25 25 24 23 23 23 23 23 22 22 21 21 21 21 20 20 20 20 19 19 19 19 18 18 18 18 17 17 17 16 16 15 14 14 13 13 12 11 11 10 10
25 26 24 22 25 27 27 27 26 26 27 27 27 28 27 26 25 24 23 23 22 21 22 21 21 22 25 26 26 26 26 26 26 26 26 26 26 26 25 24 24 24 24 24 24 24 24 24 23 23 23 23 23 22 22 21 21 21 21 20 20 20 20 20 20 19 19 19 18 18 18 17 17 16 16 16 14 13 13 13 12 11 11 10 10 9
25 25 24 21 22 23 24 25 25 25 26 26 27 28 27 27 27 25 25 24 22 21 22 21 20 22 26 27 27 27 26 26 26 26 26 26 25 25 25 25 24 24 24 24 24 24 24 24 23 23 23 23 23 23 22 21 21 21 21 20 20 20 20 20 20 19 19 19 18 18 18 17 17 16 16 15 14 13 12 12 11 11 11 10 9 9
26 26 25 22 21 21 21 22 22 23 25 26 27 27 27 27 26 24 23 22 21 21 22 21 21 23 27 28 27 27 27 26 26 25 26 25 25 25 25 24 24 24 23 23 23 23 23 23 24 24 23 23 23 23 22 22 22 22 21 21 20 20 20 20 20 19 19 19 19 18 18 17 16 16 15 14 13 12 11 11 11 11 10 10 9 9
27 26 26 23 22 22 22 23 24 25 25 25 25 25 26 26 26 25 23 22 22 22 21 22 23 23 25 27 27 27 27 26 26 25 25 25 25 25 25 24 24 24 23 23 23 23 22 23 23 24 23 23 23 23 23 22 22 22 22 21 20 20 20 20 19 19 19 19 19 19 18 17 16 15 14 13 12 12 11 11 11 10 10 9 9 8
26 25 25 25 24 24 25 25 25 25 25 25 25 25 25 25 25 24 23 23 24 22 21 23 24 23 24 27 27 27 27 27 26 26 26 25 24 24 24 24 24 24 24 24 23 23 22 22 23 23 23 23 23 23 23 23 22 22 22 21 21 21 20 19 19 19 19 19 18 18 17 16 15 14 13 12 12 11 11 10 10 10 9 9 8 8
27 24 24 25 24 25 26 25 25 25 26 26 26 25 25 25 24 24 24 25 25 22 22 24 24 23 25 27 27 27 27 27 26 26 26 25 25 25 24 24 24 24 24 24 23 23 23 23 23 23 23 22 23 22 22 22 22 22 22 21 21 21 20 19 19 19 19 19 18 18 16 15 14 13 12 12 11 11 10 10 9 9 9 8 8 8
26 24 25 25 24 24 25 25 25 26 26 26 26 26 26 26 26 25 25 26 25 24 24 25 24 24 26 27 27 27 26 26 26 26 26 26 25 25 25 24 24 24 24 24 24 23 23 23 24 23 22 22 22 22 22 22 22 22 22 21 21 21 20 19 19 19 19 18 18 17 15 14 13 12 12 11 11 10 10 9 9 8 8 8 8 7
24 23 25 25 24 23 25 25 25 26 26 25 26 27 27 26 26 26 25 25 24 24 25 25 23 25 27 27 27 26 25 26 26 26 26 26 26 25 25 25 25 25 25 25 24 24 24 24 24 24 23 23 22 22 22 22 22 23 22 22 21 21 20 20 19 19 19 18 17 16 15 14 13 12 12 11 11 10 10 9 9 8 8 7 7 7
25 24 24 25 23 22 24 25 25 25 25 24 24 26 26 25 25 25 25 25 25 24 25 23 23 25 27 27 26 25 25 26 26 26 26 26 26 26 26 26 26 25 25 25 25 25 24 24 24 24 23 23 23 23 23 23 23 23 22 22 21 21 20 20 19 19 18 17 16 15 15 14 13 13 12 11 11 10 9 9 9 8 8 7 7 7
27 26 25 24 22 22 24 25 24 24 23 22 24 26 26 26 26 26 26 26 26 25 25 24 24 27 27 27 27 26 26 26 27 27 26 26 26 26 26 26 26 26 26 26 25 25 25 25 25 24 24 23 24 24 23 23 23 23 22 22 21 20 20 19 19 18 18 17 16 15 14 14 13 13 12 11 11 10 9 9 9 8 8 7 7 7
27 26 26 25 22 21 24 25 24 23 21 22 25 27 26 26 26 26 26 26 26 26 26 26 27 27 26 26 27 27 26 27 26 26 26 26 26 26 26 26 26 26 26 26 26 26 26 26 26 25 24 24 24 24 24 23 23 22 22 21 20 20 20 19 19 18 17 16 15 15 14 14 13 13 12 11 10 10 10 9 8 8 7 7 7 6
27 26 26 25 23 22 23 23 22 21 22 24 26 25 24 24 25 25 26 27 27 26 26 27 27 27 27 27 27 27 26 26 26 26 26 26 26 26 26 26 26 26 26 25 25 26 26 26 25 24 23 23 23 23 23 23 22 21 21 21 20 20 19 19 18 17 17 16 15 15 14 14 13 12 12 11 10 10 10 9 8 8 7 7 7 6
27 27 26 25 24 23 22 22 21 22 25 26 25 23 23 23 24 24 25 27 27 27 26 27 27 28 27 27 27 26 25 25 26 26 26 26 26 26 26 26 26 26 26 26 26 26 26 25 24 24 23 23 23 22 22 22 21 21 21 21 20 19 19 18 18 17 16 15 15 15 14 14 13 12 12 11 11 10 9 8 8 8 8 7 7 6
27 27 26 24 23 23 22 21 22 23 24 25 25 24 25 25 25 25 24 26 27 27 27 27 27 27 26 26 26 26 25 26 26 26 26 26 26 26 27 27 27 27 27 26 26 25 24 24 23 23 22 22 22 22 22 22 21 21 21 20 20 19 18 18 17 16 16 15 15 15 14 14 13 12 12 11 11 10 9 9 8 8 7 7 7 6
27 27 27 24 22 23 22 21 22 22 21 23 25 26 25 25 25 25 25 25 27 27 27 27 27 26 26 26 26 25 25 26 26 27 27 27 26 26 27 27 27 27 27 26 25 24 23 23 23 23 22 21 22 22 22 21 21 21 21 20 19 19 18 18 17 16 16 15 15 14 14 14 13 12 12 12 11 10 9 9 8 8 7 7 7 7
26 27 28 25 22 23 22 21 21 21 22 25 26 26 25 24 24 25 23 23 26 27 27 26 26 26 26 26 26 26 26 26 27 27 27 27 27 27 27 27 27 27 26 26 25 25 24 22 22 22 21 21 21 21 21 20 20 20 20 20 19 19 18 18 17 16 16 15 15 14 14 14 13 12 12 12 11 10 9 9 8 8 7 7 7 7
26 27 27 24 22 22 22 21 22 22 23 26 26 25 25 24 24 24 22 22 26 27 26 26 26 26 26 26 26 27 27 27 27 27 26 27 27 27 27 27 27 27 26 26 24 24 23 21 21 22 21 21 21 20 20 20 20 20 20 19 19 19 18 17 17 16 15 15 14 14 14 13 13 12 12 11 10 9 9 9 8 7 7 7 7 7
25 26 25 23 22 22 22 21 22 23 25 26 25 25 24 24 23 22 22 24 27 27 26 25 25 26 26 26 27 27 27 26 26 26 25 26 26 26 26 26 26 26 26 25 22 22 22 22 22 22 21 21 20 19 19 20 20 19 19 19 19 18 17 16 16 15 15 14 14 14 13 13 12 12 11 11 10 9 9 8 8 7 7 8 7 7
23 24 23 23 23 23 22 22 22 23 25 25 24 23 23 23 23 23 25 26 27 27 26 25 25 25 25 26 27 27 26 25 25 25 25 25 25 25 25 25 24 24 23 22 20 21 22 22 21 21 21 20 19 19 19 19 19 18 18 18 18 17 16 16 15 15 14 14 14 14 13 12 12 11 11 10 9 9 8 8 8 7 7 7 7 6
24 23 22 23 24 23 22 22 21 22 24 24 24 24 24 24 25 26 27 27 26 26 27 26 25 25 25 26 27 26 25 25 25 24 24 24 24 24 24 24 23 23 21 20 20 21 21 21 21 20 20 19 19 19 19 19 18 18 18 18 17 16 15 15 15 15 15 14 14 13 12 11 11 11 10 10 9 9 8 8 8 7 7 7 6 6
26 24 22 24 25 23 21 22 23 24 25 25 25 25 25 25 25 26 26 27 27 27 27 27 26 25 25 26 26 26 25 25 24 24 24 24 23 23 23 23 22 22 21 21 21 20 21 21 21 20 19 19 19 19 19 18 18 18 17 16 15 15 15 15 15 14 14 14 13 12 12 11 11 10 10 9 9 9 8 8 8 7 7 7 6 6
24 24 23 24 26 25 23 24 25 26 26 25 25 25 25 24 24 24 24 26 27 27 27 28 27 25 25 25 25 25 26 25 25 24 24 24 24 23 23 23 22 21 22 22 21 20 21 21 20 19 19 18 18 18 18 18 18 17 16 15 14 14 15 15 14 14 13 13 12 12 12 11 11 10 10 9 9 9 8 8 8 8 7 7 7 7
23 23 23 25 26 25 25 25 26 25 25 25 25 24 24 24 24 24 24 25 26 26 26 26 26 26 25 25 26 26 26 26 25 24 24 24 24 23 22 22 22 21 21 21 20 20 20 21 20 19 18 17 17 18 18 18 18 17 16 15 14 15 15 14 14 13 13 13 12 12 12 11 11 10 10 9 9 9 9 8 8 8 7 7 8 8
23 22 23 25 25 24 24 24 25 24 23 23 24 23 23 23 23 23 24 24 25 25 25 24 24 25 25 25 26 27 26 26 25 25 24 24 24 23 23 22 21 21 21 21 20 19 20 20 20 19 18 17 17 17 18 18 18 16 15 15 15 15 14 14 14 13 13 12 12 12 11 11 11 10 9 9 9 10 9 9 9 8 8 8 8 8
21 21 23 24 25 25 24 23 23 23 23 22 21 21 21 21 21 22 23 23 23 24 24 24 24 24 24 25 25 26 26 26 25 25 25 24 24 23 23 22 21 21 21 20 19 19 20 21 20 20 19 18 17 17 17 18 17 16 15 15 15 15 14 14 13 13 13 12 12 12 11 11 10 10 10 10 10 10 9 9 9 8 8 8 8 8
19 20 21 22 24 26 25 22 21 24 24 22 20 20 19 19 20 21 22 23 23 23 24 24 24 24 24 24 24 25 25 26 25 25 25 25 24 23 23 22 21 21 20 20 19 20 21 21 21 20 19 19 17 17 17 17 16 15 15 15 15 15 14 14 13 13 13 12 12 12 11 11 10 10 10 10 10 10 9 9 9 9 8 8 8 8
19 20 20 22 23 24 22 20 19 21 23 21 19 18 18 18 19 21 21 21 22 22 22 23 24 24 23 23 23 23 24 25 25 24 24 25 24 24 23 22 21 21 20 20 19 19 20 21 20 20 20 19 18 17 17 17 16 15 15 15 15 15 14 13 13 13 13 13 12 12 11 11 10 11 11 10 10 10 9 8 8 8 8 8 7 7
17 16 16 19 20 20 19 18 18 19 20 20 19 18 18 18 19 20 20 20 21 21 21 22 22 23 23 23 23 23 23 24 24 24 23 24 24 23 22 22 21 21 21 20 20 20 20 20 20 20 20 19 18 17 17 17 16 16 16 15 15 15 14 14 14 13 13 13 13 12 11 11 11 11 11 10 10 10 9 8 7 7 7 7 6 6
Height
787 794 795 792 792 792 792 792 795 796 794 799 803 807 810 813 818 819 817 815 814 817 820 819 818 821 824 824 825 827 826 826 827 829 830 831 831 830 830 830 832 834 835 837 839 840 841 843 845 845 846 846 846 847 847 846 847 846 847 847 848 848 849 849 849 849 849 848 849 849 849 849 849 850 850 850 850 849 849 849 848 848 848 847 847 846
790 796 792 787 789 789 789 792 794 795 796 798 802 808 810 812 818 820 818 817 814 817 823 821 818 820 821 821 823 824 826 827 826 828 829 829 830 830 830 831 832 834 835 838 839 841 842 843 844 845 846 846 846 847 847 847 847 848 848 848 849 849 850 850 850 850 850 850 850 850 850 850 850 851 851 851 851 851 851 851 850 850 849 849 848 848
793 793 787 784 787 788 790 792 794 796 796 797 800 806 810 812 818 820 819 817 814 817 822 822 820 820 819 819 822 822 824 824 823 824 826 827 829 830 831 831 832 835 836 837 840 841 842 843 844 845 846 846 847 847 847 848 848 848 848 849 849 850 850 850 851 851 851 852 852 852 852 851 852 852 853 853 852 852 852 852 852 851 851 850 850 849
793 788 784 784 786 789 793 793 794 795 794 796 799 803 809 813 817 819 819 818 814 815 819 820 819 820 821 822 822 821 821 821 822 823 823 824 827 828 829 830 831 833 835 837 839 840 842 843 844 845 846 847 847 847 848 848 848 849 849 850 850 851 851 851 852 852 852 853 853 853 854 853 853 853 854 854 854 853 853 853 853 853 852 852 851 850
789 785 782 785 787 789 794 796 794 793 796 798 798 802 807 811 814 814 814 816 814 814 815 816 820 820 820 823 823 820 820 821 821 822 823 823 824 826 827 828 830 831 833 835 837 839 841 843 844 845 846 847 847 848 848 848 849 849 850 850 851 851 852 852 852 853 853 854 854 854 854 854 854 854 854 854 854 854 854 854 854 854 853 853 852 851
787 784 783 787 790 789 794 796 791 789 795 802 802 801 803 807 811 811 813 813 814 817 813 813 824 821 814 817 818 816 819 820 819 820 822 822 822 824 825 827 828 829 831 834 835 837 840 842 843 845 846 847 847 848 849 849 850 850 850 851 852 852 852 853 853 854 854 854 854 854 854 854 854 854 855 855 855 855 855 855 855 854 854 853 853 852
786 786 785 789 790 792 794 794 791 788 792 803 804 799 801 804 810 813 813 811 812 817 813 811 821 820 812 812 809 811 817 817 817 818 818 819 820 821 822 824 826 827 829 832 833 835 838 841 842 845 846 847 848 849 849 850 851 851 851 852 852 853 853 854 854 855 855 855 855 855 855 854 855 855 856 856 856 856 855 856 855 855 854 854 853 853
786 788 789 790 791 794 794 793 791 787 791 802 802 799 801 804 810 812 809 808 809 812 813 810 814 817 814 808 802 806 814 815 815 816 815 815 816 817 818 820 822 824 826 829 831 833 836 840 841 844 846 847 848 849 850 851 851 852 852 853 853 854 855 855 855 856 856 856 856 856 856 855 856 856 856 857 856 857 856 856 856 855 855 854 854 853
784 788 791 790 792 793 792 791 789 789 795 802 799 797 800 802 806 807 805 806 806 811 817 810 810 817 814 805 800 803 810 813 812 811 812 812 813 814 816 817 819 821 823 825 829 831 835 838 841 843 845 846 848 849 850 851 852 852 852 854 854 855 855 855 856 856 856 856 856 856 856 856 856 856 857 857 857 857 857 856 856 855 855 855 854 854
784 786 785 787 790 791 792 791 788 791 796 799 798 798 800 801 803 806 805 806 809 817 820 812 810 817 812 802 802 807 809 808 805 803 805 806 808 810 812 814 816 818 820 823 825 829 833 836 840 842 843 846 848 848 850 851 851 852 853 854 854 855 855 856 856 857 856 857 857 856 856 856 857 857 857 857 857 857 857 856 856 856 855 855 855 854
785 784 783 786 789 788 791 791 790 792 794 797 799 800 803 803 802 805 802 803 814 821 819 813 810 815 815 802 796 802 801 796 795 796 798 800 802 806 808 810 813 815 817 820 823 827 831 835 838 840 842 844 847 848 849 850 851 852 853 853 854 855 855 856 856 856 856 857 856 857 857 856 857 857 856 857 856 856 856 856 856 856 856 855 855 854
786 787 788 788 787 787 790 793 794 793 793 796 797 799 807 807 805 809 806 807 818 821 816 810 806 814 819 804 789 789 789 786 789 790 793 796 798 801 804 807 809 811 814 817 820 824 829 834 836 839 841 843 846 847 848 850 850 851 852 853 854 854 855 856 856 856 856 856 857 857 857 857 857 857 856 856 855 855 856 856 856 856 855 855 855 854
786 789 790 790 788 785 789 797 800 799 796 797 796 801 810 811 814 818 814 811 815 817 812 806 810 815 809 792 783 785 784 783 785 785 786 790 792 796 800 803 805 808 812 815 818 822 826 831 834 837 840 841 844 846 847 848 849 850 851 852 853 854 854 855 855 856 856 856 857 857 857 857 857 857 856 856 856 856 856 856 856 856 855 855 854 854
792 794 791 793 791 784 785 794 803 804 799 799 797 801 810 816 828 832 819 813 816 816 809 805 812 812 799 787 781 781 781 780 782 782 783 785 787 792 796 799 803 806 809 812 815 819 823 828 832 835 837 840 842 844 845 847 848 849 850 851 852 853 853 854 855 855 855 856 856 856 857 857 857 857 857 856 856 856 856 856 856 856 855 855 854 853
802 804 794 791 790 786 785 787 791 793 793 796 791 794 804 808 821 829 822 820 819 812 808 813 814 805 802 799 783 777 781 779 781 781 781 784 785 788 793 796 801 804 806 810 813 816 820 825 829 832 835 837 840 842 844 845 847 848 849 850 851 852 852 853 854 854 854 855 855 856 856 856 856 856 856 857 856 856 857 856 856 856 855 854 854 854
798 799 788 787 786 785 788 785 782 786 795 797 789 795 804 797 801 814 817 818 817 813 810 811 805 789 789 790 777 778 782 778 781 782 781 785 785 786 792 794 798 802 804 807 811 814 818 823 827 830 833 835 837 840 842 843 845 846 847 848 849 851 852 852 853 853 854 854 855 855 855 855 855 856 856 856 856 856 856 856 855 855 854 854 854 853
795 796 786 787 788 784 786 785 782 787 797 799 795 799 797 787 791 807 818 817 817 822 813 801 796 782 780 787 780 779 782 778 781 783 782 785 786 789 793 794 797 800 802 805 808 812 816 821 824 827 830 833 835 837 839 841 843 844 846 847 848 849 850 851 852 852 853 853 854 854 854 854 854 855 855 856 856 855 855 855 855 855 854 854 854 853
789 796 788 786 790 786 782 784 785 784 788 794 798 794 788 790 794 800 816 821 819 824 813 799 800 791 790 797 787 779 783 782 781 782 783 785 787 791 793 793 796 797 800 804 806 810 815 818 822 825 828 831 833 835 837 840 841 843 845 845 847 848 849 850 850 851 852 852 853 853 853 853 853 853 854 855 855 855 854 854 854 854 854 853 853 854
781 794 794 784 788 789 783 786 791 787 783 787 790 785 788 806 808 801 813 822 821 826 817 803 799 793 791 792 784 781 784 783 781 782 783 785 787 790 791 793 795 796 800 803 805 809 812 816 820 823 826 828 831 834 835 838 840 841 843 844 845 847 848 849 849 850 851 851 852 852 851 852 851 852 853 853 853 853 853 854 853 853 853 853 853 854
778 794 800 787 784 788 787 789 794 792 788 786 786 785 788 797 800 798 803 808 813 822 819 810 804 795 787 781 780 782 780 779 782 782 782 784 786 788 789 791 793 796 799 802 804 807 810 815 818 821 824 826 829 832 833 836 838 839 841 843 844 845 846 847 848 848 849 850 850 850 850 850 850 851 852 852 852 852 853 853 853 853 853 853 854 854
778 790 799 792 787 791 790 787 785 785 787 788 790 792 792 792 793 796 797 794 801 813 817 819 816 797 780 777 778 778 777 777 779 781 781 781 783 786 787 789 791 794 798 800 802 805 809 813 816 819 823 825 827 830 832 834 836 838 840 841 842 844 845 845 846 846 847 848 848 849 849 849 850 850 850 851 851 851 852 852 852 852 853 853 854 854
779 784 791 794 794 792 785 778 777 779 780 782 785 786 787 789 793 804 809 798 792 802 808 815 820 799 775 774 777 775 776 776 774 778 780 779 781 785 786 788 791 793 797 800 801 804 807 811 815 818 821 823 825 827 830 832 834 836 838 839 841 842 843 844 844 845 846 846 847 847 848 848 849 849 849 850 850 851 851 851 851 852 853 854 854 855
777 779 786 791 786 783 780 777 779 780 777 777 780 779 780 784 789 803 814 803 794 799 799 802 812 799 776 774 776 775 777 775 774 778 779 779 781 784 786 788 791 793 796 798 800 803 806 810 813 816 819 822 823 825 828 830 832 834 835 837 839 840 841 842 842 843 844 845 845 846 847 847 848 848 849 849 849 850 850 850 851 852 853 854 855 855
779 781 788 790 780 776 778 777 778 779 780 781 780 778 780 783 784 789 795 795 797 800 798 803 811 797 778 775 775 775 776 776 777 778 779 780 781 783 786 788 791 793 795 797 799 802 805 809 812 815 817 820 821 824 827 828 830 832 834 835 836 838 839 840 841 842 842 843 844 845 846 846 847 847 848 849 849 849 849 850 851 852 853 854 855 855
782 784 788 796 796 793 791 788 787 786 784 783 779 778 780 781 784 788 788 792 800 799 797 808 811 792 776 774 773 774 776 776 778 778 778 781 783 784 786 787 790 793 795 797 800 802 805 807 810 813 815 817 819 821 824 826 828 830 831 833 834 835 837 838 839 840 841 842 843 843 844 845 846 846 847 848 848 849 849 850 851 852 853 854 855 856
779 782 785 798 807 809 806 801 796 789 782 779 779 781 782 781 785 790 790 794 804 803 796 801 802 787 774 771 772 774 776 777 779 779 778 780 783 784 785 787 790 792 795 797 799 802 804 806 808 811 813 815 817 818 821 823 825 827 829 831 832 834 835 836 837 838 839 840 841 842 843 844 844 845 846 846 847 848 849 850 851 852 853 854 855 856
778 780 781 788 793 795 795 791 787 784 781 781 783 783 784 784 784 786 790 793 795 798 795 790 791 790 781 774 773 774 775 776 778 779 780 780 782 784 785 787 789 791 793 796 798 801 803 805 807 809 811 813 814 816 818 820 822 825 826 828 830 832 833 834 835 836 838 839 839 840 841 842 843 843 844 845 846 848 849 850 852 853 853 855 855 856
779 783 783 785 785 784 784 784 784 785 783 781 781 783 785 786 787 789 792 790 787 795 798 788 786 792 786 776 775 775 774 775 776 777 778 780 782 783 785 787 789 791 792 794 797 800 801 804 805 807 809 811 812 814 816 818 820 822 824 826 828 829 831 832 833 834 836 837 838 839 840 841 842 842 843 844 845 848 849 850 851 852 853 855 855 856
778 783 785 785 785 784 783 785 785 784 782 780 779 782 783 785 789 790 788 784 785 794 795 786 786 791 784 776 774 773 773 774 774 775 776 778 781 782 784 787 788 790 791 793 795 797 799 801 803 805 808 809 811 813 814 816 818 820 822 823 825 827 829 830 831 832 834 835 836 837 838 839 840 841 842 844 846 847 849 850 851 852 853 855 856 857
777 782 784 784 785 785 784 785 785 783 781 780 778 778 779 781 782 784 783 782 785 787 784 784 789 787 778 773 772 772 772 772 773 775 775 777 779 781 783 785 786 788 789 791 793 795 797 798 800 803 805 807 809 810 812 814 815 817 819 821 822 825 826 827 829 830 832 833 834 835 837 837 839 840 842 844 846 847 848 849 851 853 854 855 856 857
779 786 786 782 784 786 784 784 784 782 780 780 778 776 778 780 781 782 783 785 787 786 782 785 790 783 772 770 771 772 773 772 773 775 776 776 777 779 781 782 783 785 786 788 790 792 794 796 798 800 802 804 806 808 809 811 812 814 817 818 820 822 823 825 827 828 830 831 833 834 835 837 838 840 842 844 846 847 848 850 851 853 854 855 856 857
778 785 785 782 788 788 783 783 785 782 780 781 779 777 779 781 783 782 782 783 784 784 785 788 787 777 769 769 771 773 773 773 774 775 775 775 775 777 779 780 781 783 784 785 787 790 792 793 795 798 800 802 804 805 807 809 810 812 814 816 818 820 821 824 825 826 828 830 831 833 834 836 838 840 842 844 846 847 848 850 852 853 854 855 856 857
774 779 780 782 790 788 781 782 784 783 789 790 781 776 777 778 779 779 779 779 779 779 783 785 778 770 768 769 771 772 773 772 772 772 773 774 774 775 777 777 778 780 781 783 785 787 789 790 792 795 797 799 801 802 804 806 808 810 812 814 816 818 820 822 823 825 827 828 830 832 834 836 838 840 842 844 846 847 848 850 852 853 854 855 856 857
775 775 776 780 787 788 783 781 785 793 800 794 778 771 775 777 777 779 777 774 774 774 774 773 770 768 770 770 769 771 771 770 770 770 770 772 773 775 775 775 776 778 779 781 783 784 786 787 790 793 795 797 799 800 802 804 806 808 810 812 814 816 818 820 821 824 825 827 829 831 833 836 837 839 842 844 846 847 849 850 851 853 854 855 856 856
776 775 777 780 784 786 781 783 799 807 795 780 773 774 777 777 776 777 775 770 770 772 772 770 768 766 766 767 767 768 768 768 769 769 768 769 771 773 774 775 775 776 778 781 782 782 784 786 789 792 794 796 798 799 801 803 805 807 809 810 812 814 816 818 820 822 824 826 828 830 832 835 837 839 841 843 845 847 848 850 851 852 854 854 856 856
773 775 778 781 784 786 784 791 804 800 778 770 777 779 778 778 778 778 778 771 767 769 770 770 767 763 763 765 765 767 768 768 768 768 767 768 769 770 772 773 774 775 777 778 780 782 784 786 789 791 793 795 796 798 800 801 803 805 807 809 811 812 814 817 819 821 823 825 827 829 832 834 836 839 841 843 845 846 848 849 851 852 853 854 855 856
768 772 775 782 788 789 788 789 788 784 778 777 779 776 774 775 774 775 778 774 767 766 767 768 766 764 765 766 766 767 768 768 769 769 767 767 768 768 769 770 771 773 774 776 779 782 784 786 788 790 792 793 795 796 798 799 801 803 805 807 809 811 813 815 817 820 822 824 826 828 831 833 835 838 840 842 844 846 847 849 850 851 853 853 855 855
768 769 772 782 789 787 788 789 788 793 794 784 774 771 770 771 770 771 775 776 769 764 765 766 766 766 766 767 768 768 768 771 772 769 766 766 767 767 768 769 770 772 774 777 780 782 784 786 787 789 791 792 793 795 796 798 800 801 803 804 806 809 811 814 816 819 821 823 825 828 830 833 835 837 839 841 843 845 847 848 850 851 852 853 854 855
771 769 767 777 786 785 788 793 796 800 794 778 771 771 769 770 770 770 778 780 770 764 765 766 766 766 766 767 768 767 769 772 771 767 765 765 766 767 768 769 770 772 774 777 779 780 783 785 786 788 789 791 792 794 795 797 798 800 801 803 804 807 809 812 815 818 820 823 825 827 830 832 834 836 838 840 842 844 846 847 849 850 851 852 853 854
773 771 771 778 782 784 788 789 788 788 782 773 771 770 769 769 769 777 792 789 771 764 766 765 766 766 765 766 767 766 766 769 769 768 766 764 764 766 767 768 770 772 774 776 778 780 782 784 785 787 788 790 791 793 794 796 797 799 800 802 803 805 808 811 814 817 820 822 825 827 829 831 834 836 838 840 841 843 845 847 848 849 851 852 853 854
775 774 777 780 778 781 789 788 782 779 774 771 771 770 769 771 775 786 795 784 767 765 766 765 766 766 765 766 765 764 765 766 766 767 766 765 766 767 767 769 770 772 773 776 778 780 781 783 784 786 787 789 790 792 793 795 796 798 800 801 803 805 807 810 813 816 819 822 824 827 829 831 833 835 837 839 841 843 845 846 848 849 850 851 853 853
778 779 781 782 778 778 781 782 782 781 774 770 772 772 772 777 783 783 778 769 765 767 765 765 767 766 766 766 764 763 766 766 766 766 766 767 768 767 768 770 771 773 774 776 778 780 781 782 784 785 787 788 790 791 793 794 796 798 800 802 804 805 807 810 813 816 819 822 824 826 829 831 833 834 836 838 840 842 844 846 847 848 849 851 852 853
772 776 779 778 777 779 782 785 791 791 778 768 772 774 774 777 777 770 765 764 765 765 764 765 766 765 766 766 764 765 767 767 767 768 768 768 769 769 770 771 772 774 775 776 778 779 780 782 784 785 787 788 790 791 792 794 796 798 800 802 804 806 807 810 813 816 819 821 824 826 828 830 832 834 836 838 840 842 843 845 846 848 849 850 851 852
768 773 776 773 772 779 786 787 785 782 772 767 771 773 772 772 769 766 767 766 764 762 762 763 764 765 765 765 765 766 767 767 768 769 768 769 769 769 770 771 772 774 775 776 778 779 780 782 783 785 787 788 789 791 793 794 796 798 800 803 804 806 808 810 814 816 819 821 823 825 827 830 831 833 835 837 840 841 843 844 845 847 849 850 851 851
772 773 774 773 769 772 778 777 772 769 768 767 769 769 768 768 767 767 769 767 764 763 761 761 763 764 764 764 765 766 765 766 767 767 768 768 768 769 770 771 772 774 775 776 778 779 780 782 783 784 787 788 790 792 793 794 796 798 800 802 804 806 808 811 814 816 818 820 823 825 827 829 831 833 835 837 839 841 842 843 844 846 848 849 849 850
772 773 772 770 768 769 771 770 768 770 770 768 767 768 768 768 766 766 767 766 764 762 762 762 763 763 762 763 764 764 764 764 765 766 767 767 767 768 770 771 772 774 775 776 777 779 780 782 783 784 786 788 790 792 793 795 797 798 800 802 804 806 808 810 813 815 818 820 822 825 827 829 831 833 835 837 839 840 841 842 844 845 847 848 848 848
772 774 772 768 770 774 777 775 771 773 775 773 771 771 770 769 769 767 767 766 764 762 763 763 764 763 763 763 762 762 763 763 764 765 765 765 767 767 768 770 772 773 774 776 777 779 780 781 782 784 786 788 791 792 793 795 797 799 800 802 804 806 808 810 812 815 817 820 822 824 826 828 830 832 834 836 838 839 840 841 843 844 845 846 847 847
778 777 775 772 770 771 775 777 775 774 775 776 777 777 776 775 772 769 767 766 764 763 763 763 763 764 764 764 763 763 762 762 763 764 764 764 765 766 767 769 771 772 774 775 777 778 779 780 781 783 785 788 790 792 793 795 797 798 800 801 804 806 808 810 812 814 817 819 821 823 825 827 829 831 833 835 837 838 839 840 841 843 844 844 845 846
785 782 781 778 773 769 771 778 779 774 772 775 779 781 780 779 776 772 769 767 765 764 763 762 762 763 763 764 764 764 764 763 762 763 763 763 763 765 766 768 770 772 773 775 776 778 778 779 781 782 785 787 789 791 793 794 796 798 799 801 803 804 806 809 811 814 816 818 820 822 824 826 828 830 832 834 835 836 838 839 840 841 842 843 844 844
788 788 787 781 777 779 784 789 789 783 779 781 784 784 783 781 778 775 772 770 768 767 766 764 763 762 762 763 763 764 764 764 763 764 764 763 763 765 766 767 769 771 773 774 776 777 778 779 780 782 784 786 788 790 792 793 795 796 798 800 801 803 805 807 810 813 815 816 818 820 822 824 826 828 830 831 833 834 836 837 838 839 840 841 842 842
798 800 799 792 789 791 793 794 794 791 787 786 787 787 785 782 780 778 776 774 772 770 768 767 766 765 764 763 763 764 764 763 763 764 764 764 765 766 767 767 768 769 771 773 775 776 778 779 780 782 783 785 786 788 790 791 793 794 796 798 799 801 803 805 808 810 812 814 816 817 819 821 824 826 828 829 831 832 834 835 837 838 839 839 840 841
Wind_Speed
2 3 2 2 4 4 2 2 3 3 4 5 4 4 4 3 5 4 4 5 1 2 3 3 4 7 7 7 8 8 8 8 9 9 8 8 7 7 6 7 8 8 8 10 9 9 8 8 6 5 5 6 5 5 5 5 6 6 7 7 6 5 5 4 3 3 3 4 5 6 6 7 7 7 8 9 9 10 10 10 10 10 11 11 11 11
3 4 2 5 6 4 1 1 1 2 4 4 4 4 3 3 5 5 3 4 1 2 3 3 3 7 7 7 8 8 8 9 10 10 9 10 8 6 7 8 8 7 8 10 9 8 8 7 7 6 6 6 6 6 6 6 7 7 7 7 6 5 4 3 3 3 4 4 5 6 6 7 7 8 8 8 9 8 9 10 10 10 11 11 12 12
4 2 4 5 3 2 3 4 4 3 3 3 3 2 3 4 5 5 4 3 2 2 4 5 3 5 6 6 7 7 7 8 9 9 9 10 9 7 7 8 8 8 8 9 9 9 8 7 7 7 6 6 7 7 7 7 8 8 7 7 6 5 4 3 3 4 5 5 5 6 6 7 8 8 8 7 7 8 8 9 9 10 10 11 12 11
2 3 5 4 3 3 4 6 6 4 3 3 3 2 4 4 2 3 5 4 2 1 3 5 4 4 5 5 6 7 7 6 7 8 8 8 9 8 8 8 8 9 9 9 9 9 8 8 7 7 8 7 7 7 7 8 8 8 7 7 6 6 5 5 5 5 5 4 5 6 6 7 7 7 7 6 7 7 8 8 9 9 10 11 11 11
4 5 4 2 2 2 4 7 7 3 3 4 4 3 4 4 1 3 5 6 4 3 4 5 4 4 7 8 7 8 8 7 8 9 9 8 8 8 8 8 8 9 9 10 10 10 10 9 8 8 8 7 7 8 8 9 9 9 9 8 7 7 7 6 5 5 5 5 6 6 6 7 7 7 7 7 7 7 7 9 9 9 9 9 10 10
2 4 2 2 3 3 3 6 5 2 2 4 4 4 4 4 2 4 6 6 4 5 5 5 3 4 8 9 9 9 9 9 9 10 11 10 9 9 8 9 9 9 9 9 10 11 11 10 9 9 8 7 8 9 10 10 10 10 10 9 8 8 7 6 5 5 6 7 7 7 8 8 8 8 7 7 7 8 9 9 8 7 8 8 8 9
2 2 1 3 3 3 3 3 3 3 1 4 4 3 5 5 5 5 4 3 1 4 4 4 4 2 7 9 10 10 11 11 11 11 12 11 11 10 9 9 9 9 9 9 10 11 12 11 10 10 9 8 9 10 10 11 10 10 10 9 9 8 8 7 5 5 6 7 7 8 9 9 9 8 8 7 7 8 9 9 8 7 6 7 7 8
1 1 2 3 3 4 2 1 3 4 4 4 5 5 5 6 7 5 3 1 2 2 4 4 4 2 3 6 9 12 12 12 12 13 13 12 12 12 11 10 11 11 10 10 9 11 12 12 12 11 10 10 10 10 10 10 10 10 9 8 8 8 7 6 5 6 6 7 8 8 9 10 10 10 9 8 7 7 7 7 7 7 6 6 7 7
2 1 1 3 3 2 1 2 5 3 3 6 7 6 5 6 6 3 2 2 2 1 3 3 3 3 3 5 7 11 11 12 13 14 14 14 14 14 13 12 12 12 11 11 10 11 13 13 13 12 11 11 11 11 11 10 10 10 8 7 7 7 7 6 5 6 6 7 8 8 9 9 10 10 10 9 8 7 6 6 5 5 5 5 6 7
3 2 1 2 1 2 3 4 5 2 3 7 8 5 5 5 5 2 2 1 1 2 2 3 2 3 2 6 6 8 9 11 12 13 14 15 15 14 13 13 13 12 11 11 11 12 14 14 14 13 11 12 12 12 11 10 10 9 7 7 7 7 6 5 5 6 6 6 6 7 8 8 9 10 9 9 9 7 6 6 5 4 4 5 6 7
5 2 0 1 2 4 7 6 4 2 7 10 8 6 6 5 4 3 2 1 3 2 4 2 2 4 0 4 5 6 7 8 9 10 13 14 15 15 14 13 13 12 11 11 11 13 14 15 15 14 13 13 13 12 12 11 10 9 7 7 7 7 5 5 4 5 5 5 5 6 7 7 8 9 9 8 9 8 7 6 5 4 4 5 6 7
6 5 3 2 3 6 9 8 5 6 11 9 5 4 4 4 4 3 3 3 2 3 4 0 2 5 3 2 4 5 6 6 6 7 12 15 16 15 14 14 13 12 12 11 11 12 14 15 16 15 14 14 14 13 13 11 10 10 8 7 7 6 5 4 4 4 4 4 4 5 5 6 6 7 7 8 7 7 7 6 5 4 4 5 7 7
6 4 5 5 5 7 8 7 6 6 8 6 3 4 4 1 1 1 1 1 2 5 3 0 2 4 3 2 3 5 6 6 5 5 8 13 16 16 15 14 13 12 12 12 11 11 13 15 16 17 16 16 15 14 14 13 11 10 9 8 8 7 6 5 5 4 4 4 4 3 4 4 4 4 5 6 5 4 4 4 4 4 5 6 7 7
4 5 7 7 5 7 6 2 4 5 5 6 3 3 3 2 2 2 2 2 3 4 3 1 3 3 1 2 2 3 4 4 5 6 6 8 12 15 15 15 14 13 13 12 11 11 12 15 17 18 17 17 16 15 15 14 13 11 10 9 8 8 7 6 5 5 5 5 4 3 3 3 3 3 3 3 3 3 2 2 3 4 6 7 7 6
1 2 7 5 4 7 7 3 2 1 3 3 2 3 3 2 3 4 3 4 4 2 3 3 3 3 2 2 2 3 2 2 4 6 6 7 8 12 14 15 14 14 13 12 12 12 13 15 17 18 18 17 16 16 16 15 14 12 11 11 10 9 8 7 6 6 5 5 5 4 4 3 2 2 2 1 1 1 1 2 4 5 5 6 5 5
3 2 6 3 2 6 6 1 2 2 2 2 2 3 2 3 3 3 2 4 4 2 1 2 2 3 2 4 3 3 4 4 4 5 8 9 8 9 12 14 14 13 13 13 12 12 13 16 17 17 17 16 16 17 16 16 15 14 12 12 11 10 9 8 7 7 6 5 4 5 5 4 3 2 2 1 1 2 2 3 4 4 4 4 4 5
2 3 7 4 3 6 4 2 3 3 1 3 3 1 2 3 3 2 0 1 3 2 1 1 2 1 3 3 2 3 5 5 4 5 8 10 10 10 10 12 13 13 13 13 12 12 14 15 16 16 17 16 16 16 17 17 16 15 14 12 12 11 9 9 8 7 6 5 5 5 5 5 5 5 4 3 3 3 4 4 3 2 2 3 3 5
2 2 6 5 5 5 2 3 3 2 2 2 1 2 2 1 3 2 1 1 2 2 2 2 4 3 1 0 2 4 5 5 5 6 8 10 11 10 10 12 13 14 14 13 13 13 14 16 16 16 16 16 16 16 17 17 16 15 15 13 12 12 11 10 9 8 7 6 5 5 5 6 6 6 4 4 5 5 4 3 1 1 2 3 4 5
3 1 5 4 2 6 5 5 4 3 3 3 3 1 2 2 1 1 1 3 3 3 2 2 4 3 2 3 2 3 4 5 5 6 9 11 11 10 10 13 14 14 13 13 13 13 13 15 16 15 15 16 17 16 16 17 17 16 15 14 13 12 11 10 9 8 8 6 6 5 4 5 6 6 5 5 5 5 4 2 1 1 2 4 5 6
2 2 3 4 3 5 7 6 3 5 4 3 1 2 3 3 3 1 2 3 4 4 3 4 4 1 4 6 5 1 3 6 6 6 8 9 10 9 9 12 14 14 13 12 13 12 13 16 16 16 16 16 17 17 16 17 17 16 15 15 14 12 11 11 10 9 8 7 6 5 4 4 4 5 5 5 5 4 3 2 3 3 3 6 7 7
2 2 1 5 5 4 5 4 3 1 3 4 4 3 3 2 2 2 1 2 4 4 3 4 5 2 5 5 4 2 2 5 6 7 7 7 9 9 9 12 13 13 12 12 12 12 14 16 16 17 16 16 16 17 16 16 16 17 16 15 14 13 12 12 11 10 9 8 7 6 5 4 4 4 4 5 4 3 4 5 5 4 6 8 8 8
2 2 1 4 5 5 2 2 2 4 2 3 2 2 2 2 2 3 1 0 2 4 4 5 5 3 4 4 2 2 1 3 5 6 6 7 9 9 10 11 12 13 12 13 13 12 14 17 17 17 17 16 16 16 17 16 16 16 16 16 15 14 13 13 12 11 10 9 8 7 5 4 4 5 5 5 5 6 7 6 6 6 8 9 9 9
1 2 2 2 3 1 3 4 1 4 5 5 3 3 3 2 3 4 3 2 2 2 3 4 5 3 5 3 2 1 0 1 2 4 5 7 9 9 10 11 12 12 13 13 13 12 15 17 16 17 18 18 17 16 16 16 16 16 16 15 15 14 14 13 12 11 10 9 8 6 5 5 5 5 6 7 8 8 8 7 8 9 10 10 10 9
1 2 3 3 1 2 4 4 2 1 4 6 5 4 4 3 3 5 4 4 3 2 2 4 4 2 5 3 1 1 1 1 2 4 6 7 7 9 10 11 11 11 12 13 12 12 15 16 16 17 18 18 18 17 16 16 16 16 15 15 15 15 14 13 12 11 10 9 8 6 6 5 6 6 7 8 9 9 9 9 10 11 11 11 10 10
3 2 3 4 3 3 4 5 4 3 5 5 3 4 5 4 3 2 2 3 3 2 3 5 4 3 3 2 2 1 2 3 3 4 6 7 7 8 9 10 11 10 11 13 12 12 13 14 15 16 17 18 18 18 18 17 17 16 16 16 15 14 13 12 11 11 10 9 8 7 6 6 7 8 9 10 10 10 11 12 13 13 12 11 11 10
3 2 3 5 5 3 3 1 1 1 3 3 2 4 5 6 6 3 3 4 2 1 3 5 4 6 6 2 2 2 3 4 5 5 6 7 8 9 9 9 10 10 11 13 12 12 11 12 15 16 17 17 18 18 18 18 18 17 16 16 15 14 12 12 11 11 10 9 9 8 7 8 9 11 12 12 11 12 12 13 14 13 12 12 11 10
2 2 3 5 6 5 5 4 3 3 3 2 3 5 5 6 6 5 5 4 2 2 3 2 5 7 8 5 2 1 2 4 5 6 7 7 8 9 9 9 9 9 10 12 12 11 11 12 14 16 17 17 17 18 17 18 18 17 16 16 15 14 12 12 11 11 10 10 9 8 8 9 11 13 13 13 13 14 14 14 14 13 13 12 11 10
3 3 2 4 5 4 5 4 2 3 5 3 1 4 5 5 6 6 6 4 4 4 3 5 5 7 7 6 5 3 1 3 4 6 7 8 8 8 9 9 10 10 10 11 11 12 12 12 12 15 16 16 17 17 16 17 17 17 16 15 15 14 13 12 11 11 10 9 9 8 9 11 12 13 14 14 15 15 15 15 15 14 13 12 11 10
4 2 1 2 3 0 1 0 1 3 3 3 2 3 4 6 7 7 7 4 3 6 5 5 4 7 7 6 5 3 0 2 3 5 6 8 9 9 10 11 11 11 11 12 12 12 12 12 12 13 15 15 15 16 16 16 16 16 15 14 14 14 13 12 11 10 10 9 9 10 11 13 13 14 15 15 16 16 16 16 15 15 14 12 11 10
4 1 2 2 3 2 2 1 2 4 4 4 4 3 3 5 6 7 6 4 4 8 7 5 7 8 6 5 4 3 1 1 4 5 6 8 9 10 10 11 12 12 12 12 12 12 11 12 13 14 15 15 15 16 16 16 16 16 15 14 13 13 12 12 11 10 10 10 10 11 13 14 14 15 15 16 16 17 17 17 16 15 13 12 11 10
2 1 2 3 5 4 4 2 3 5 5 6 5 4 4 5 5 6 5 3 5 7 6 5 8 7 0 2 2 2 2 3 4 6 6 8 9 10 10 11 11 12 12 12 12 11 11 12 12 14 14 15 15 15 15 15 15 15 14 13 13 13 12 12 10 10 10 10 11 13 13 14 15 16 16 16 17 17 17 16 16 14 13 12 11 10
2 1 3 5 5 3 5 3 4 4 6 8 6 4 5 5 4 4 4 4 5 5 4 5 6 3 3 4 2 2 4 5 6 6 7 7 8 10 10 10 11 11 12 12 12 11 12 12 12 13 14 15 15 15 15 15 14 14 14 13 12 12 12 11 10 10 11 11 12 13 14 15 16 16 17 17 17 17 17 16 15 14 13 12 10 9
2 2 3 4 4 3 4 2 3 4 6 5 2 0 2 3 3 3 4 5 6 5 4 4 4 4 4 2 2 3 5 6 6 6 6 7 8 9 9 9 10 10 11 11 11 12 12 12 13 13 13 14 14 14 14 14 14 13 12 12 12 12 12 11 11 11 12 13 14 14 15 16 17 17 17 17 17 17 16 16 14 13 12 11 10 9
2 2 1 1 3 2 4 1 4 5 3 2 4 2 2 3 4 4 4 4 5 6 5 6 6 3 1 2 2 1 3 4 3 4 4 5 6 7 8 9 9 10 10 10 11 11 11 12 12 12 12 12 12 12 12 12 12 11 11 11 12 12 12 12 12 13 13 14 15 15 16 16 17 18 18 17 17 17 16 15 14 13 12 11 10 9
3 2 1 1 3 0 2 3 5 3 2 3 3 1 2 4 4 5 6 5 3 6 7 7 8 6 3 3 1 0 1 2 2 3 4 5 6 6 7 8 8 9 9 9 10 10 10 11 11 10 10 10 10 10 10 10 11 11 11 12 12 12 13 13 13 14 15 16 16 17 17 17 18 18 18 18 17 16 15 15 14 13 11 10 9 9
3 2 2 1 1 1 1 3 2 2 3 2 3 2 0 2 3 4 5 1 1 2 5 6 8 6 2 3 2 1 2 3 3 4 5 6 6 6 6 7 8 9 9 10 10 9 9 10 9 9 9 9 9 10 10 11 12 12 12 12 13 13 13 14 14 15 16 17 17 17 18 18 19 19 19 18 17 16 15 14 13 12 11 10 9 8
3 2 2 1 0 2 2 0 1 1 2 4 4 2 0 1 0 3 1 5 6 3 2 5 8 4 1 3 3 3 3 4 4 5 7 7 7 7 6 5 7 8 8 9 8 8 8 7 7 8 8 9 10 10 10 12 13 13 13 14 14 14 15 15 15 16 16 17 18 18 18 19 20 19 19 17 16 16 15 14 13 11 10 10 9 8
3 2 2 1 1 1 3 1 1 1 3 4 4 3 0 1 2 4 2 4 6 6 4 5 5 1 4 5 6 5 5 5 4 4 8 8 8 7 7 5 6 7 8 8 8 7 7 7 7 8 8 9 9 9 10 12 13 14 14 15 15 16 15 15 15 16 17 17 18 19 19 19 20 19 18 17 16 16 15 14 12 11 10 9 9 8
3 3 2 2 1 2 3 2 2 2 3 4 4 4 1 1 1 3 3 2 7 7 5 5 3 2 6 7 7 6 5 4 2 4 6 8 8 7 7 7 8 8 8 8 7 7 7 7 7 7 8 9 9 9 10 12 13 13 14 15 16 17 16 16 16 17 17 18 18 19 19 19 19 19 18 17 16 15 15 13 12 11 10 9 9 8
4 3 3 4 2 1 3 2 2 2 2 3 3 2 2 1 2 3 1 4 7 7 5 4 2 3 6 7 6 4 1 2 4 6 4 4 6 6 6 7 8 8 8 8 7 7 8 9 9 9 9 9 9 10 11 12 12 13 13 14 16 17 16 17 17 18 18 19 19 19 18 18 18 18 17 17 16 15 14 13 12 11 10 9 8 8
4 3 2 4 3 2 2 2 1 3 3 2 1 1 2 1 3 1 4 5 5 5 5 4 1 3 4 5 5 1 4 6 6 6 4 3 4 5 5 5 6 6 6 8 9 9 9 9 9 9 9 9 10 10 11 12 12 12 13 14 14 15 17 17 18 19 19 20 19 19 18 18 18 17 17 17 17 15 13 12 12 11 10 9 8 8
4 3 2 3 3 1 1 2 2 4 3 2 2 3 1 1 1 4 5 3 3 5 5 3 2 2 3 5 3 1 5 6 4 4 4 3 3 3 4 5 6 6 6 8 9 10 9 9 9 9 9 10 10 11 11 12 12 13 13 13 13 15 17 18 19 19 20 20 19 19 18 18 18 18 17 16 16 15 14 12 12 11 10 9 8 8
2 4 4 3 2 1 2 2 2 4 3 2 4 4 1 1 4 5 3 2 2 4 4 4 3 2 3 3 3 1 2 3 2 2 2 1 1 2 3 4 5 6 7 9 10 10 10 10 11 10 10 10 10 10 11 12 13 13 13 13 14 16 18 18 19 19 20 19 19 18 18 19 20 19 17 17 16 15 14 13 12 11 10 9 9 9
1 2 2 3 2 2 2 2 2 5 4 3 3 1 3 4 5 5 4 2 2 2 3 4 4 2 2 2 1 2 2 1 1 0 1 1 1 2 3 5 5 6 7 10 11 11 10 11 11 11 10 10 10 10 11 12 13 13 13 14 15 16 18 18 19 20 19 19 18 18 18 19 19 18 17 17 16 15 14 13 12 10 10 9 9 8
3 4 3 0 1 0 2 4 4 5 5 1 2 4 5 4 3 4 5 5 2 2 3 3 4 3 3 2 1 1 2 2 2 3 3 3 3 3 4 5 6 7 8 10 11 11 10 11 12 12 11 11 10 10 10 12 14 15 14 15 16 17 19 19 19 19 19 18 18 18 18 18 17 16 16 16 16 14 14 13 12 10 10 9 9 8
7 6 4 1 2 3 3 5 5 6 7 6 3 3 5 5 4 3 4 5 3 3 4 4 3 1 2 4 2 1 1 1 3 4 4 4 4 4 4 5 6 8 9 10 11 12 11 11 13 13 13 11 10 10 10 11 13 15 16 16 17 17 19 20 20 19 18 18 18 18 18 17 16 16 16 15 14 13 13 13 11 10 10 9 9 8
7 7 4 1 1 3 4 6 8 8 10 10 7 7 9 9 8 7 5 5 4 4 3 3 4 3 2 3 3 1 1 2 3 3 4 4 4 4 5 6 8 10 10 10 12 12 12 12 13 13 13 12 11 11 11 11 12 14 16 18 17 18 19 20 20 19 18 18 18 18 18 17 17 16 16 15 13 12 12 12 11 10 10 10 9 8
4 7 4 1 2 3 7 10 9 7 12 13 10 8 9 10 10 10 7 5 5 5 3 2 2 3 3 3 4 3 2 2 3 3 4 4 4 4 5 7 9 10 10 10 12 13 12 13 13 13 13 13 12 12 12 12 11 14 17 18 18 18 19 19 20 19 18 18 18 18 17 17 18 17 16 15 14 12 12 11 11 10 10 10 9 9
5 6 5 4 2 5 8 10 11 1 8 14 14 11 10 10 10 11 10 8 7 6 5 3 1 1 2 3 4 5 5 4 2 3 4 3 3 5 6 7 10 11 11 11 12 12 12 13 14 15 14 13 13 13 13 13 13 15 17 17 18 19 19 20 20 19 18 18 18 17 16 16 18 17 15 15 14 12 11 12 12 10 9 9 10 10
5 3 5 4 1 4 5 9 9 3 2 9 13 12 12 11 11 11 12 11 11 10 9 7 4 1 2 2 2 4 5 4 3 3 4 4 3 4 6 8 10 11 11 11 11 11 12 13 15 15 14 14 14 14 14 14 14 16 17 18 20 20 21 22 21 18 18 18 17 17 17 17 17 17 15 15 15 13 12 14 16 14 11 10 13 14
4 3 6 4 1 3 6 7 7 4 2 5 9 11 11 11 11 11 12 12 12 11 10 9 8 6 4 3 2 3 4 4 3 3 4 5 4 4 6 9 12 13 13 13 13 13 13 13 14 15 15 14 15 15 15 15 16 17 18 19 21 22 23 24 21 18 18 18 18 19 19 17 17 17 15 15 15 14 13 14 16 16 15 13 14 15
Wind_Direction
234 247 245 3 28 24 1 15 13 16 59 80 87 91 98 110 100 97 112 109 292 283 87 76 112 132 144 145 146 149 162 172 164 167 168 163 168 161 158 157 151 144 129 129 132 128 125 123 123 120 114 109 104 102 104 113 121 127 135 134 130 125 123 117 94 71 52 46 51 55 57 56 52 53 56 53 48 50 46 42 45 47 48 51 56 61
228 264 359 35 27 18 22 106 138 119 101 96 91 103 107 92 97 102 112 116 254 282 113 134 145 135 143 146 152 162 170 178 176 177 175 169 170 165 165 162 149 137 132 137 138 134 134 133 131 122 113 105 99 99 102 110 117 123 127 127 125 124 124 114 85 73 58 47 51 58 58 56 55 50 53 58 54 53 52 46 49 52 55 64 68 67
212 265 33 50 51 74 125 157 169 150 120 99 91 110 96 92 112 121 134 146 222 266 129 160 180 138 142 150 160 177 184 184 183 183 180 174 175 173 170 164 152 146 146 147 145 145 146 138 131 122 109 98 93 98 104 111 119 121 121 120 117 114 111 107 102 93 80 68 60 61 62 59 64 61 56 60 58 59 60 54 57 61 64 72 73 70
271 50 56 82 118 134 144 163 176 157 126 73 68 67 83 118 168 118 140 170 194 246 137 169 183 145 154 168 174 190 195 189 188 191 191 187 186 178 175 170 162 158 155 155 154 153 153 146 138 127 116 108 102 103 107 114 118 117 115 113 111 106 100 100 102 93 84 86 80 73 70 65 71 75 71 73 69 67 70 68 70 69 66 71 71 66
322 67 82 124 155 181 157 166 189 177 104 67 50 36 74 127 267 42 126 162 169 165 171 185 188 162 174 185 182 187 196 195 194 198 199 198 196 188 181 176 171 167 163 162 161 160 160 155 147 136 126 120 110 104 108 114 113 111 110 107 106 102 96 95 96 93 93 97 94 89 86 81 82 84 82 83 76 73 80 81 81 74 66 68 66 60
355 71 101 218 191 193 173 173 208 256 92 97 70 51 82 119 113 102 142 176 181 151 160 205 221 150 167 188 184 175 188 197 195 200 204 199 196 196 191 184 178 171 168 168 166 163 162 158 150 142 136 129 114 109 113 115 112 110 107 104 100 97 94 94 95 97 98 98 96 93 90 87 86 82 79 82 80 81 87 89 84 75 65 63 57 50
61 73 237 247 201 178 197 185 200 265 290 108 100 107 117 121 126 138 171 220 279 94 129 223 279 108 158 187 182 174 187 196 194 201 205 200 197 198 195 189 184 177 173 172 170 164 162 161 155 151 148 140 128 124 124 120 118 114 109 106 103 99 98 98 103 105 100 100 97 92 87 84 84 86 86 86 87 89 91 91 86 78 65 55 47 36
104 149 194 219 193 176 202 154 170 250 308 88 127 158 142 137 142 157 212 287 34 88 146 205 271 293 157 168 174 179 190 195 196 203 204 202 201 198 196 191 186 184 177 172 172 166 163 164 163 160 157 149 143 140 137 132 128 124 120 117 111 106 103 102 108 109 105 104 101 98 93 88 87 89 94 94 94 94 92 89 84 77 64 50 40 27
121 268 181 184 190 168 67 62 144 206 4 100 150 168 146 148 148 169 260 32 52 212 156 151 236 261 142 135 166 184 196 203 202 204 203 201 200 196 195 192 187 185 179 175 174 169 166 168 168 166 159 155 154 152 149 145 140 136 135 132 124 119 114 109 110 106 106 108 105 102 99 97 95 93 94 97 96 93 91 92 83 68 58 45 32 19
85 337 320 208 225 100 87 89 143 181 69 125 160 157 142 158 158 195 269 30 182 236 69 93 235 274 128 132 165 185 204 214 207 205 203 199 198 195 194 191 187 184 180 178 174 170 169 169 170 169 162 159 159 159 159 156 151 149 151 151 142 133 128 124 118 111 111 114 108 104 103 102 100 95 95 98 95 93 94 92 82 61 45 32 21 9
90 84 58 315 35 93 111 106 118 107 111 139 162 156 154 169 179 225 254 236 226 154 80 76 260 275 200 122 153 179 201 214 206 201 199 197 196 193 191 190 188 184 180 179 175 171 170 169 171 172 167 165 165 166 168 166 163 162 165 168 156 146 145 144 137 125 121 117 108 105 104 102 99 95 96 97 92 93 95 86 73 55 34 22 12 5
131 144 131 100 103 126 125 113 106 120 137 158 179 175 183 182 188 217 204 217 259 79 82 79 241 252 258 95 131 163 175 195 206 196 191 195 196 190 189 190 187 185 181 179 177 171 169 170 173 176 173 171 171 173 175 176 174 172 174 176 171 166 169 169 160 148 140 130 115 111 106 102 100 91 89 93 89 87 88 76 60 36 17 8 3 6
149 128 118 124 149 167 144 119 121 141 166 198 215 209 233 225 159 220 163 168 32 63 59 342 208 237 255 81 126 169 181 191 203 205 192 194 194 189 187 187 185 184 182 180 178 172 170 173 175 178 178 177 178 180 181 182 181 181 182 183 182 179 181 182 175 169 166 154 139 136 123 110 108 95 84 87 88 86 80 56 35 10 358 356 356 8
141 124 150 159 164 192 202 164 143 162 196 218 228 245 283 353 14 10 44 48 55 79 69 100 201 239 220 115 116 158 182 189 198 217 212 198 195 188 184 185 183 183 183 181 179 174 174 176 177 178 181 182 183 185 185 185 186 187 187 190 191 186 185 190 186 186 184 173 170 169 159 132 111 104 96 86 81 81 57 14 2 349 345 348 356 20
336 112 163 173 139 180 215 296 5 120 179 200 272 290 302 339 351 2 21 22 24 69 101 140 218 314 4 168 136 115 144 193 219 224 216 205 196 186 183 183 182 182 184 182 179 177 175 176 176 178 183 185 185 186 188 188 188 191 191 194 199 193 188 194 197 201 195 178 180 187 189 189 148 114 125 130 87 24 342 336 338 336 340 352 13 49
299 60 130 134 82 179 201 273 305 275 147 148 255 260 300 352 350 353 5 2 347 325 112 157 244 355 67 158 160 174 210 222 231 222 205 195 186 181 183 183 181 181 183 181 179 177 174 174 175 177 181 185 185 186 190 191 190 193 195 195 201 199 193 197 203 206 203 192 189 196 203 210 217 221 209 213 244 264 292 311 325 333 346 16 52 73
293 73 123 149 171 188 208 169 209 290 41 151 214 216 48 353 315 311 257 228 281 283 49 9 302 77 124 148 159 211 220 208 200 199 191 183 172 173 180 182 180 180 181 180 178 175 174 174 175 177 181 184 186 187 189 193 193 195 198 197 200 201 198 201 204 205 207 207 206 212 216 215 224 235 232 238 257 255 269 296 316 338 17 57 83 90
291 89 129 174 180 158 198 189 167 309 314 192 176 83 117 262 287 292 284 244 278 326 44 21 339 353 67 111 151 181 194 187 182 177 172 170 167 169 176 180 181 180 179 178 177 175 175 177 177 179 181 183 187 189 189 192 195 196 200 201 200 200 200 202 205 207 208 212 221 233 235 229 230 237 239 246 254 255 264 280 287 87 87 92 98 102
265 247 134 180 182 135 174 209 169 169 254 296 9 92 216 275 279 187 301 325 340 350 17 13 338 342 26 27 64 154 177 180 175 170 169 169 170 172 175 179 181 179 177 178 178 176 176 179 179 179 182 182 186 191 190 191 195 197 200 203 203 201 200 202 206 210 212 216 224 234 242 242 236 240 249 248 244 254 266 254 178 163 148 119 109 110
236 286 137 158 158 145 178 218 208 159 181 250 250 194 231 313 343 353 331 324 326 335 344 345 340 42 52 16 2 33 161 178 177 177 181 175 172 175 175 176 179 178 177 179 179 176 176 180 179 179 183 183 183 190 190 189 194 198 200 203 205 205 205 206 211 216 218 220 223 229 240 246 239 241 244 236 233 247 246 176 147 152 146 128 119 116
199 280 135 137 151 186 191 209 255 198 164 201 212 204 204 217 291 296 283 305 320 328 342 342 332 21 56 25 354 11 133 183 184 181 187 179 171 173 174 175 176 175 177 179 178 176 177 180 180 180 184 185 183 186 189 190 194 198 200 204 206 208 211 213 217 221 222 222 223 230 239 239 233 230 220 212 210 197 175 158 155 154 139 127 120 116
207 256 204 143 173 215 178 120 319 311 290 253 238 245 242 227 268 281 256 224 307 322 340 334 319 350 59 58 7 9 144 194 189 181 184 179 171 171 171 171 172 172 175 179 179 178 178 179 181 181 183 186 185 185 189 191 194 197 200 204 207 209 212 215 217 220 221 223 225 230 234 227 223 214 196 186 175 161 159 166 171 158 135 125 120 114
323 277 239 199 194 192 78 88 356 311 287 272 263 271 279 259 272 293 320 343 305 311 327 303 303 11 76 81 33 34 161 218 182 176 182 176 168 168 167 166 169 172 174 179 180 178 179 180 182 182 184 187 187 189 191 192 195 198 200 203 207 209 212 213 216 218 218 220 225 227 225 219 208 197 182 169 160 157 163 168 160 143 132 129 124 117
244 259 245 256 212 128 110 134 163 257 252 251 239 236 255 255 270 295 323 331 303 292 314 299 306 34 100 111 66 93 196 204 166 174 181 171 163 166 166 164 168 170 173 178 179 179 181 181 182 185 187 190 190 190 193 196 198 198 200 204 207 210 212 213 216 218 218 219 221 221 219 210 195 183 169 157 154 158 163 157 143 134 133 132 126 118
201 233 235 265 245 194 185 177 175 186 215 244 246 217 236 242 240 261 289 282 275 317 338 310 317 18 76 123 164 173 194 181 155 166 173 166 164 168 166 165 168 168 171 176 177 178 180 181 184 188 190 193 194 193 195 200 200 200 201 204 208 211 212 214 216 218 219 220 220 218 212 198 183 170 161 158 159 158 154 144 136 134 134 131 123 115
203 242 229 269 278 262 265 247 176 217 207 222 224 208 223 223 212 220 256 255 250 358 302 289 327 357 2 11 165 170 203 187 147 152 166 164 167 170 167 166 168 170 173 176 176 176 179 183 188 192 194 196 198 197 198 202 203 204 204 204 208 210 211 213 214 217 219 219 220 217 203 185 173 164 160 164 165 156 145 139 136 133 130 126 121 114
209 259 239 272 285 297 322 357 23 313 277 229 186 187 205 216 215 233 265 281 327 311 278 352 19 345 344 357 17 82 202 198 161 161 166 158 162 168 168 167 168 173 176 177 178 178 181 187 192 195 197 199 202 202 202 204 205 207 206 205 207 209 210 210 210 214 217 217 217 212 194 177 168 160 158 161 160 150 141 136 134 130 127 123 119 113
242 251 221 259 277 308 337 1 32 277 280 290 209 175 179 193 208 231 259 306 341 295 294 45 28 332 344 357 350 13 182 201 175 174 167 154 160 166 165 168 171 174 176 176 179 180 182 188 192 195 197 201 204 205 206 208 207 209 209 206 206 208 207 206 207 212 214 211 207 197 180 167 160 157 157 157 152 144 137 136 134 131 127 122 115 110
267 253 145 235 251 315 6 338 202 248 263 275 254 198 180 191 205 231 259 283 287 277 307 17 351 317 337 341 338 19 96 193 148 157 156 149 158 163 164 172 176 177 177 177 178 181 185 188 189 192 196 199 203 205 208 211 210 209 209 206 206 207 205 204 208 211 208 203 194 181 168 160 154 153 153 150 145 141 139 140 137 131 125 120 115 110
288 219 136 221 222 160 149 184 210 233 240 239 238 226 213 216 221 241 264 272 261 272 293 322 305 296 313 331 352 52 84 125 129 146 158 159 164 167 170 178 181 181 181 181 181 182 186 190 189 191 195 198 203 206 208 212 212 211 211 208 206 205 202 201 204 203 199 195 183 169 160 155 152 148 146 143 142 141 141 140 134 127 122 119 115 112
276 224 141 223 229 169 152 189 218 237 259 261 251 234 230 242 241 245 255 243 247 269 279 282 283 281 288 59 39 93 139 174 165 164 171 172 170 173 179 183 185 185 185 184 184 183 186 191 191 192 196 199 203 205 208 210 212 213 212 208 204 201 198 195 193 192 190 183 170 160 155 150 146 144 142 142 142 140 139 136 131 127 124 120 116 113
225 210 157 217 237 168 149 200 223 240 261 258 252 239 227 236 244 240 234 221 240 277 275 253 277 308 94 111 140 155 177 198 190 176 179 181 177 180 187 188 187 188 188 185 184 185 186 189 191 192 197 200 203 205 207 208 210 210 206 200 195 191 188 186 183 180 176 167 160 156 151 146 143 143 142 142 142 140 137 134 131 128 125 122 119 115
220 212 173 216 249 157 144 197 232 239 249 239 220 315 226 243 258 244 230 225 234 260 277 278 316 17 69 131 185 174 192 207 202 191 187 187 185 186 190 192 189 188 188 186 185 186 189 191 192 194 198 201 203 205 206 206 207 206 199 191 184 179 178 177 174 170 164 160 156 152 149 147 145 143 143 142 142 139 136 134 131 129 127 124 121 117
218 231 151 236 275 149 129 191 239 240 248 106 86 47 344 302 279 257 256 248 223 227 265 301 314 326 182 214 242 197 193 195 190 191 187 186 190 191 194 198 194 188 186 186 188 190 190 191 192 192 196 201 204 203 202 201 199 194 185 179 176 174 173 171 167 162 158 155 153 151 149 149 147 144 143 144 142 139 137 135 132 131 129 127 124 119
183 205 129 207 286 315 140 221 237 241 44 75 101 65 332 299 278 270 276 278 234 226 248 280 297 295 260 229 241 56 126 131 151 184 189 185 190 198 199 197 193 188 185 186 192 193 188 187 188 187 190 197 197 191 189 188 183 179 176 175 173 171 169 165 161 157 155 154 153 152 151 150 148 145 144 144 142 140 138 136 135 134 132 129 126 122
183 176 155 185 298 315 225 224 264 356 39 89 121 112 195 230 230 258 262 207 107 237 251 282 310 321 295 203 175 109 121 145 165 177 179 181 185 196 202 195 191 190 188 188 191 189 184 186 187 185 184 186 188 189 190 187 181 179 178 175 170 166 163 160 157 155 154 154 153 153 153 151 148 146 146 146 144 141 140 139 138 137 134 132 128 125
220 194 183 195 265 310 296 288 344 298 141 126 115 104 306 246 256 296 306 87 69 30 329 312 320 337 116 160 143 131 152 179 187 170 165 175 182 190 196 189 183 184 181 179 177 174 177 184 187 185 184 186 190 196 195 187 182 180 175 169 164 161 159 157 155 154 154 154 154 154 153 151 149 148 148 148 146 143 142 142 141 139 137 136 132 128
244 253 262 238 177 289 302 336 75 114 108 96 90 91 46 315 339 307 276 99 59 28 7 328 326 37 134 142 139 145 171 200 201 158 158 171 176 181 186 177 172 178 174 168 168 170 175 180 184 184 184 187 192 193 188 183 181 178 172 166 162 159 157 156 155 155 155 154 154 153 152 152 151 150 150 150 147 145 144 143 142 141 141 138 134 132
219 245 256 253 210 239 285 339 67 62 60 75 90 101 131 240 284 278 248 98 46 22 4 340 338 139 144 137 143 166 194 200 144 106 139 171 177 181 188 181 176 179 174 170 177 179 172 167 169 173 178 184 185 181 179 178 179 180 174 166 161 157 156 156 154 155 155 153 152 152 151 152 152 150 150 149 147 146 146 144 143 143 142 139 134 135
193 204 223 244 228 207 280 316 81 80 58 86 108 105 97 165 238 252 267 52 33 18 7 354 13 142 148 146 158 189 225 60 77 88 109 164 175 180 194 192 183 180 177 169 160 155 157 158 163 170 177 181 177 173 175 177 179 180 174 165 160 156 153 153 152 152 152 150 150 150 150 151 151 150 150 148 146 146 146 144 145 144 142 139 138 139
188 192 223 256 244 171 237 264 131 103 77 78 102 86 93 189 240 286 46 39 22 24 24 4 29 129 156 174 184 176 54 61 74 96 108 128 158 170 182 183 175 175 175 162 150 149 155 158 162 164 165 167 166 166 170 173 174 171 165 160 157 150 146 146 147 148 149 148 149 149 148 149 150 148 148 147 146 146 145 146 148 146 142 142 141 142
188 181 187 245 246 186 227 250 153 104 68 42 87 99 140 239 58 69 72 54 18 34 42 32 51 113 173 204 227 27 64 72 71 84 98 102 125 150 163 165 162 154 139 138 146 155 154 148 148 149 147 151 157 158 163 166 165 161 157 154 150 143 141 142 145 147 149 148 149 148 147 148 149 148 146 148 149 147 146 148 148 145 145 146 146 148
188 199 190 184 194 191 205 213 160 94 78 139 146 134 184 327 44 59 89 116 70 42 50 61 70 114 187 215 254 308 56 72 63 59 65 70 89 134 163 171 175 166 149 147 154 158 152 146 145 144 142 145 150 153 160 161 157 154 151 146 141 139 139 142 145 148 149 148 148 147 148 153 155 153 150 151 153 150 149 150 148 146 149 151 151 155
154 256 215 153 170 211 185 146 79 50 63 171 193 52 27 31 28 11 360 35 76 63 53 68 81 116 189 214 256 254 260 274 244 211 242 215 184 181 178 173 177 176 168 163 159 157 157 152 144 140 139 140 144 152 159 157 152 148 145 142 140 141 142 143 146 148 147 148 149 149 151 156 158 156 154 155 155 153 152 151 149 150 156 161 162 163
43 2 326 344 169 250 45 44 35 33 42 120 253 322 351 6 3 336 323 325 350 26 14 35 82 118 179 196 193 215 240 256 236 228 237 222 201 200 194 182 178 175 173 165 157 158 163 154 144 141 138 139 146 153 156 156 151 146 144 146 147 147 146 147 149 149 149 150 152 153 154 155 156 155 157 158 159 158 156 154 154 159 165 170 173 171
48 14 319 289 115 121 81 45 47 51 47 54 65 21 0 355 351 324 291 290 309 353 351 356 29 73 181 188 190 189 184 214 218 215 224 230 219 198 185 184 177 172 172 167 159 160 161 150 145 144 139 141 151 153 153 156 154 150 153 155 153 152 152 153 152 152 152 153 154 156 156 155 155 157 160 163 165 164 161 159 162 167 172 178 180 178
53 7 321 248 154 169 127 58 52 68 57 42 43 37 22 9 360 349 322 299 305 309 322 348 347 326 274 218 223 229 160 207 230 220 209 216 219 202 188 185 180 175 176 172 165 164 160 153 151 149 145 150 159 156 152 153 154 159 163 161 157 156 157 157 156 155 155 157 157 159 159 158 159 161 163 167 170 167 165 166 168 173 180 185 184 183
13 346 343 1 324 154 108 49 29 86 81 50 35 30 16 2 356 358 355 342 329 312 297 308 313 312 309 280 276 295 286 232 234 239 226 212 208 203 195 188 182 178 176 173 170 170 167 162 160 156 155 160 164 161 157 155 156 166 168 163 161 161 160 161 162 161 161 161 161 163 165 164 165 166 167 172 174 171 170 173 175 181 189 190 188 189
307 318 338 335 308 141 102 28 357 89 95 47 28 22 12 359 355 1 7 11 9 3 355 346 315 279 295 299 305 308 299 284 271 260 250 233 207 197 193 189 185 179 176 176 177 178 175 170 167 165 164 166 166 165 164 160 164 172 172 167 167 166 164 165 167 165 164 165 166 167 168 169 171 172 173 175 176 174 175 178 181 186 191 195 195 194
314 331 339 312 208 123 68 13 351 320 72 33 20 11 5 360 359 7 15 16 14 13 7 1 1 346 278 273 282 287 288 304 322 299 280 273 245 207 191 184 182 181 180 179 179 181 183 178 174 172 171 169 168 170 170 168 171 176 176 175 175 174 172 171 169 168 170 171 171 172 171 172 175 178 178 178 176 174 177 183 187 188 188 195 203 202
1 4 342 328 355 32 11 3 353 333 351 32 22 9 3 3 6 15 20 17 15 16 12 8 12 16 10 359 347 311 287 296 315 303 289 292 286 247 210 193 186 184 183 181 182 186 188 185 180 179 177 174 175 177 176 176 179 180 181 183 183 181 179 177 173 174 177 178 178 178 176 176 178 180 181 182 180 178 178 182 189 194 195 201 209 210